Location: Oulou
(10.7667°N, 12.5167°W)
Time: 13:54:52
(UTC+00:00)

Genesis I - Pass Details

Date: 20 September 2019
Orbit: 487 x 537 km, 64.5° (Epoch: 16 October)

Event Time Altitude Azimuth Distance (km) Brightness Sun altitude
Rises 19:17:04 0° 344° (NNW) 2,598 7.0 -8.1°
Reaches altitude 10° 19:19:17 10° 350° (N) 1,705 6.0 -8.6°
Maximum altitude 19:22:59 51° 66° (ENE) 633 3.3 -9.5°
Drops below altitude 10° 19:26:39 10° 143° (SE) 1,681 5.4 -10.4°
Enters shadow 19:28:22 - 148° (SSE) 2,370 6.2 -10.8°
